Regional Weather Roundup
Issued by NWS Albany, NY

Home | Current Version | Previous Version | Graphics & Text | Print | Product List | Glossary On
Versions: 1 2 3 4 5 6 7 8 9 10 11 12 13 14 15 16 17 18 19 20 21 22 23 24 25 26 27 28 29 30 31 32 33 34 35 36 37 38 39 40 41 42 43 44 45 46 47 48 49 50
000
ASUS41 KALY 162310
RWRALY

NEW YORK STATE HOURLY WEATHER ROUNDUP
NATIONAL WEATHER SERVICE ALBANY NY
700 PM EDT TUE SEP 16 2014

NOTE: "FAIR" INDICATES FEW OR NO CLOUDS BELOW 12,000 FEET WITH NO
SIGNIFICANT WEATHER AND/OR NO OBSTRUCTIONS TO VISIBILITY.

NYZ032-033-038>043-046>054-057>066-NYZ062>081-170000-
EAST


CITY           SKY/WX    TMP DP  RH WIND       PRES   REMARKS
ALBANY         PTCLDY    61  48  62 W6        29.99R
GLENS FALLS    CLEAR     59  51  75 W5        29.95R
POUGHKEEPSIE   CLOUDY    64  57  78 CALM      29.97S
NEWBURGH       MOCLDY    63  55  77 VRB6      30.00S
MONTGOMERY     CLOUDY    64  49  57 NW6       29.99R
WHITE PLAINS   MOCLDY    60  54  80 CALM      29.98S
ISLIP          MOCLDY    63  58  83 CALM      29.96F
NEW YORK CITY  PTCLDY    66  57  72 S5        29.98R
CENTRAL PARK   MOCLDY    67  49  52 NE6       30.01R
$$

NYZ005>009-017-018-044>046-055-056-170000-
CENTRAL


CITY           SKY/WX    TMP DP  RH WIND       PRES   REMARKS
FULTON         CLEAR     58  48  69 W8        30.02S
SYRACUSE       PTCLDY    61  46  57 NW8       30.02S
ROME           PTCLDY    58  47  66 NW6       30.02S
ELMIRA         CLEAR     56  50  80 NW3       30.03S
BINGHAMTON     CLEAR     57  47  69 NW5       30.04R
MONTICELLO     PTCLDY    57  50  77 W6        30.03S
$$

NYZ026>034-041>043-170000-
NORTH


CITY           SKY/WX    TMP DP  RH WIND       PRES   REMARKS
WATERTOWN      PTCLDY    62  48  60 SW10G17   29.99S
FORT DRUM      NOT AVBL
MASSENA        PTCLDY    59  48  67 SW6       29.95S
SARANAC LAKE   CLEAR     53  40  61 W5        29.96R
PLATTSBURGH    PTCLDY    56  52  86 CALM      29.94R
$$

NYZ001>004-010>016-019>021-170000-
WEST


CITY           SKY/WX    TMP DP  RH WIND       PRES   REMARKS
NIAGARA FALLS  PTCLDY    60  42  51 W6        30.04S
BUFFALO        MOCLDY    61  46  57 SW9       30.05S
DUNKIRK        CLEAR     59  45  59 SW7       30.07S
JAMESTOWN      CLEAR     55  39  54 W5        30.09S
WELLSVILLE     CLEAR     54  42  64 NW8       30.08S
ROCHESTER      PTCLDY    61  42  49 W3        30.04S
PENN YAN       CLEAR     60  46  59 NW5       30.04S
$$

             KEY
       WCI = WIND CHILL INDEX
       VSB = VISIBILITY
       HX  = HEAT INDEX
$$


USA.gov is the U.S. government's official web portal to all federal, state and local government web resources and services.